Retour au catalogue

STARLINK-5918

ActifCommunicationsVLEO
NORAD 55939·PAYLOAD·🇺🇸 United States

Lancé Mar 17, 2023 depuis Vandenberg Space Force Base

Loading…

Prochains Passages (prochaines 24 heures)

TLE

FraisSource: CelesTrak SupGP

Époque: Sep 15, 2026, 01:51 UTC

1 55939C 23037AB  26258.07756944  .00269610  00000+0  22358-1 0  2583
2 55939  70.0007 166.9080 0003120 272.6756 296.2622 14.98600905    10

Suivez STARLINK-5918 en temps réel avec AllMySat

Download on the App Store